星链-31075 (STARLINK-31075 )

导读 | 豆包AI

STARLINK-31075是美国太空探索技术公司(SpaceX)发射的星链(Starlink)低轨互联网卫星,于2023年12月19日发射入轨,属于SpaceX打造的全球巨型卫星互联网星座的一部分,该星座旨在为全球尤其是偏远地区提供高速低延迟的宽带互联网服务,依托近地轨道部署保障网络性能,目前仍在轨运行。

基本信息
目录编号:
58594
目录名称:
STARLINK-31075
国际标识:
2023-200F
轨道中心:
EARTH
卫星名称:
星链-31075
卫星全名:
星链-31075 (STARLINK-31075 )
卫星状态:
在轨 (已飞行863 天)
发射日期:
2023-12-19 UTC
国别 :
美国 (US)
星等 :
--
轨道信息
数据来源 国际轨道数据
星历时间: 2026-04-30T22:18:43+0800
7小时前
查看轨道信息
半长轴: 6861.181km
偏心率: 0.0001493
轨道倾角: 43.002°
近地点辐角 274.088°
升交点赤经 235.335°
平近点角 85.980°
近地点: 482.019km
远地点: 484.069km
周期: 94.267分钟
每日圈数: 15.275819
详细信息
固有亮度:
5
最大亮度:
0.3
卫星平台:
Starlink v2.0 mini
覆盖范围:
全球
运营商:
太空探索技术公司
运营商所在国:
美国
制造商(研发单位):
太空探索技术公司
制造商所在国:
美国
使用方式:
暂无
卫星简介
星链(Starlink)计划是由太空探索技术公司(SpaceX)提出的一个巨型低轨卫星互联网星座项目,计划在2019年至2024年间在太空搭建由约1.2万颗卫星组成的“星链”网络,其中1584颗将部署在地球上空550千米处的近地轨道,并从2020年开始工作。该卫星仍在工作。
2D轨道图
3D轨道图
轨道高度分析图
轨道倾角分析图
轨道综合分析图
查看轨道综合分析图